Year,Month,Day,Hour,Minute,Value (Times are PST for temperature in C)
2015,07,19,00,00,24.70
2015,07,19,00,01,24.70
2015,07,19,00,02,24.50
2015,07,19,00,03,24.40
2015,07,19,00,04,24.30
2015,07,19,00,05,24.30
2015,07,19,00,06,24.20
2015,07,19,00,07,24.10
2015,07,19,00,08,24.10
2015,07,19,00,09,24.00
2015,07,19,00,10,23.90
2015,07,19,00,11,23.80
2015,07,19,00,12,23.70
2015,07,19,00,13,23.60
2015,07,19,00,14,23.50
2015,07,19,00,15,23.40
2015,07,19,00,16,23.30
2015,07,19,00,17,23.30
2015,07,19,00,18,23.20
2015,07,19,00,19,23.20
2015,07,19,00,20,23.10
2015,07,19,00,21,23.10
2015,07,19,00,22,23.10
2015,07,19,00,23,23.00
2015,07,19,00,24,23.00
2015,07,19,00,25,23.00
2015,07,19,00,26,22.90
2015,07,19,00,27,22.90
2015,07,19,00,28,22.90
2015,07,19,00,29,22.80
2015,07,19,00,30,22.80
2015,07,19,00,31,22.80
2015,07,19,00,32,22.70
2015,07,19,00,33,22.60
2015,07,19,00,34,22.50
2015,07,19,00,35,22.50
2015,07,19,00,36,22.40
2015,07,19,00,37,22.40
2015,07,19,00,38,22.40
2015,07,19,00,39,22.40
2015,07,19,00,40,22.30
2015,07,19,00,41,22.30
2015,07,19,00,42,22.30
2015,07,19,00,43,22.30
2015,07,19,00,44,22.30
2015,07,19,00,45,22.30
2015,07,19,00,46,22.30
2015,07,19,00,47,22.20
2015,07,19,00,48,22.20
2015,07,19,00,49,22.20
2015,07,19,00,50,22.20
2015,07,19,00,51,22.10
2015,07,19,00,52,22.10
2015,07,19,00,53,22.00
2015,07,19,00,54,21.90
2015,07,19,00,55,21.80
2015,07,19,00,56,21.80
2015,07,19,00,57,21.70
2015,07,19,00,58,21.60
2015,07,19,00,59,21.60
2015,07,19,01,00,21.60
2015,07,19,01,01,21.70
2015,07,19,01,02,21.70
2015,07,19,01,03,21.80
2015,07,19,01,04,21.80
2015,07,19,01,05,21.90
2015,07,19,01,06,22.00
2015,07,19,01,07,22.10
2015,07,19,01,08,22.10
2015,07,19,01,09,22.20
2015,07,19,01,10,22.20
2015,07,19,01,11,22.20
2015,07,19,01,12,22.20
2015,07,19,01,13,22.10
2015,07,19,01,14,22.10
2015,07,19,01,15,22.00
2015,07,19,01,16,22.00
2015,07,19,01,17,21.90
2015,07,19,01,18,21.90
2015,07,19,01,19,21.80
2015,07,19,01,20,21.80
2015,07,19,01,21,21.80
2015,07,19,01,22,21.80
2015,07,19,01,23,21.80
2015,07,19,01,24,21.70
2015,07,19,01,25,21.70
2015,07,19,01,26,21.70
2015,07,19,01,27,21.60
2015,07,19,01,28,21.60
2015,07,19,01,29,21.60
2015,07,19,01,30,21.60
2015,07,19,01,31,21.60
2015,07,19,01,32,21.60
2015,07,19,01,33,21.60
2015,07,19,01,34,21.60
2015,07,19,01,35,21.60
2015,07,19,01,36,21.60
2015,07,19,01,37,21.70
2015,07,19,01,38,21.70
2015,07,19,01,39,21.70
2015,07,19,01,40,21.60
2015,07,19,01,41,21.60
2015,07,19,01,42,21.60
2015,07,19,01,43,21.50
2015,07,19,01,44,21.50
2015,07,19,01,45,21.40
2015,07,19,01,46,21.40
2015,07,19,01,47,21.30
2015,07,19,01,48,21.30
2015,07,19,01,49,21.30
2015,07,19,01,50,21.20
2015,07,19,01,51,21.20
2015,07,19,01,52,21.20
2015,07,19,01,53,21.20
2015,07,19,01,54,21.20
2015,07,19,01,55,21.20
2015,07,19,01,56,21.20
2015,07,19,01,57,21.20
2015,07,19,01,58,21.20
2015,07,19,01,59,21.20
2015,07,19,02,00,21.10
2015,07,19,02,01,21.10
2015,07,19,02,02,21.10
2015,07,19,02,03,21.10
2015,07,19,02,04,21.10
2015,07,19,02,05,21.00
2015,07,19,02,06,21.00
2015,07,19,02,07,21.00
2015,07,19,02,08,21.00
2015,07,19,02,09,21.10
2015,07,19,02,10,21.10
2015,07,19,02,11,21.10
2015,07,19,02,12,21.10
2015,07,19,02,13,21.10
2015,07,19,02,14,21.00
2015,07,19,02,15,21.00
2015,07,19,02,16,20.90
2015,07,19,02,17,20.90
2015,07,19,02,18,20.90
2015,07,19,02,19,20.90
2015,07,19,02,20,21.00
2015,07,19,02,21,20.90
2015,07,19,02,22,20.90
2015,07,19,02,23,20.90
2015,07,19,02,24,20.80
2015,07,19,02,25,20.80
2015,07,19,02,26,20.80
2015,07,19,02,27,20.80
2015,07,19,02,28,20.70
2015,07,19,02,29,20.70
2015,07,19,02,30,20.70
2015,07,19,02,31,20.70
2015,07,19,02,32,20.70
2015,07,19,02,33,20.60
2015,07,19,02,34,20.60
2015,07,19,02,35,20.70
2015,07,19,02,36,20.70
2015,07,19,02,37,20.60
2015,07,19,02,38,20.60
2015,07,19,02,39,20.60
2015,07,19,02,40,20.60
2015,07,19,02,41,20.70
2015,07,19,02,42,20.60
2015,07,19,02,43,20.60
2015,07,19,02,44,20.60
2015,07,19,02,45,20.50
2015,07,19,02,46,20.50
2015,07,19,02,47,20.40
2015,07,19,02,48,20.40
2015,07,19,02,49,20.40
2015,07,19,02,50,20.30
2015,07,19,02,51,20.40
2015,07,19,02,52,20.40
2015,07,19,02,53,20.50
2015,07,19,02,54,20.40
2015,07,19,02,55,20.40
2015,07,19,02,56,20.40
2015,07,19,02,57,20.30
2015,07,19,02,58,20.30
2015,07,19,02,59,20.20
2015,07,19,03,00,20.20
2015,07,19,03,01,20.20
2015,07,19,03,02,20.20
2015,07,19,03,03,20.20
2015,07,19,03,04,20.20
2015,07,19,03,05,20.20
2015,07,19,03,06,20.30
2015,07,19,03,07,20.30
2015,07,19,03,08,20.40
2015,07,19,03,09,20.40
2015,07,19,03,10,20.40
2015,07,19,03,11,20.40
2015,07,19,03,12,20.40
2015,07,19,03,13,20.40
2015,07,19,03,14,20.40
2015,07,19,03,15,20.40
2015,07,19,03,16,20.40
2015,07,19,03,17,20.30
2015,07,19,03,18,20.30
2015,07,19,03,19,20.30
2015,07,19,03,20,20.30
2015,07,19,03,21,20.20
2015,07,19,03,22,20.20
2015,07,19,03,23,20.20
2015,07,19,03,24,20.10
2015,07,19,03,25,20.10
2015,07,19,03,26,20.10
2015,07,19,03,27,20.10
2015,07,19,03,28,20.10
2015,07,19,03,29,20.10
2015,07,19,03,30,20.10
2015,07,19,03,31,20.10
2015,07,19,03,32,20.10
2015,07,19,03,33,20.20
2015,07,19,03,34,20.20
2015,07,19,03,35,20.20
2015,07,19,03,36,20.30
2015,07,19,03,37,20.30
2015,07,19,03,38,20.40
2015,07,19,03,39,20.40
2015,07,19,03,40,20.40
2015,07,19,03,41,20.40
2015,07,19,03,42,20.40
2015,07,19,03,43,20.50
2015,07,19,03,44,20.50
2015,07,19,03,45,20.40
2015,07,19,03,46,20.40
2015,07,19,03,47,20.30
2015,07,19,03,48,20.20
2015,07,19,03,49,20.20
2015,07,19,03,50,20.10
2015,07,19,03,51,20.10
2015,07,19,03,52,20.10
2015,07,19,03,53,20.10
2015,07,19,03,54,20.00
2015,07,19,03,55,20.00
2015,07,19,03,56,20.00
2015,07,19,03,57,20.00
2015,07,19,03,58,20.00
2015,07,19,03,59,19.90
2015,07,19,04,00,19.90
2015,07,19,04,01,19.90
2015,07,19,04,02,19.90
2015,07,19,04,03,19.90
2015,07,19,04,04,20.00
2015,07,19,04,05,20.00
2015,07,19,04,06,20.00
2015,07,19,04,07,20.00
2015,07,19,04,08,20.00
2015,07,19,04,09,20.00
2015,07,19,04,10,20.00
2015,07,19,04,11,19.90
2015,07,19,04,12,19.90
2015,07,19,04,13,19.80
2015,07,19,04,14,19.80
2015,07,19,04,15,19.80
2015,07,19,04,16,19.80
2015,07,19,04,17,19.80
2015,07,19,04,18,19.80
2015,07,19,04,19,19.70
2015,07,19,04,20,19.70
2015,07,19,04,21,19.70
2015,07,19,04,22,19.70
2015,07,19,04,23,19.70
2015,07,19,04,24,19.70
2015,07,19,04,25,19.70
2015,07,19,04,26,19.70
2015,07,19,04,27,19.70
2015,07,19,04,28,19.70
2015,07,19,04,29,19.70
2015,07,19,04,30,19.70
2015,07,19,04,31,19.70
2015,07,19,04,32,19.70
2015,07,19,04,33,19.70
2015,07,19,04,34,19.70
2015,07,19,04,35,19.70
2015,07,19,04,36,19.70
2015,07,19,04,37,19.60
2015,07,19,04,38,19.60
2015,07,19,04,39,19.60
2015,07,19,04,40,19.60
2015,07,19,04,41,19.60
2015,07,19,04,42,19.60
2015,07,19,04,43,19.60
2015,07,19,04,44,19.60
2015,07,19,04,45,19.60
2015,07,19,04,46,19.60
2015,07,19,04,47,19.60
2015,07,19,04,48,19.60
2015,07,19,04,49,19.60
2015,07,19,04,50,19.60
2015,07,19,04,51,19.60
2015,07,19,04,52,19.60
2015,07,19,04,53,19.60
2015,07,19,04,54,19.50
2015,07,19,04,55,19.50
2015,07,19,04,56,19.50
2015,07,19,04,57,19.50
2015,07,19,04,58,19.50
2015,07,19,04,59,19.50
2015,07,19,05,00,19.50
2015,07,19,05,01,19.40
2015,07,19,05,02,19.40
2015,07,19,05,03,19.40
2015,07,19,05,04,19.40
2015,07,19,05,05,19.40
2015,07,19,05,06,19.30
2015,07,19,05,07,19.30
2015,07,19,05,08,19.30
2015,07,19,05,09,19.30
2015,07,19,05,10,19.20
2015,07,19,05,11,19.20
2015,07,19,05,12,19.20
2015,07,19,05,13,19.20
2015,07,19,05,14,19.10
2015,07,19,05,15,19.10
2015,07,19,05,16,19.10
2015,07,19,05,17,19.10
2015,07,19,05,18,19.00
2015,07,19,05,19,19.00
2015,07,19,05,20,19.00
2015,07,19,05,21,19.00
2015,07,19,05,22,19.00
2015,07,19,05,23,19.00
2015,07,19,05,24,19.00
2015,07,19,05,25,18.90
2015,07,19,05,26,19.00
2015,07,19,05,27,19.00
2015,07,19,05,28,19.00
2015,07,19,05,29,19.10
2015,07,19,05,30,19.10
2015,07,19,05,31,19.10
2015,07,19,05,32,19.10
2015,07,19,05,33,19.10
2015,07,19,05,34,19.10
2015,07,19,05,35,19.10
2015,07,19,05,36,19.10
2015,07,19,05,37,19.10
2015,07,19,05,38,19.10
2015,07,19,05,39,19.10
2015,07,19,05,40,19.00
2015,07,19,05,41,19.00
2015,07,19,05,42,19.00
2015,07,19,05,43,18.90
2015,07,19,05,44,18.90
2015,07,19,05,45,18.90
2015,07,19,05,46,18.90
2015,07,19,05,47,18.90
2015,07,19,05,48,18.90
2015,07,19,05,49,18.90
2015,07,19,05,50,18.90
2015,07,19,05,51,18.90
2015,07,19,05,52,18.90
2015,07,19,05,53,18.90
2015,07,19,05,54,18.90
2015,07,19,05,55,18.90
2015,07,19,05,56,18.90
2015,07,19,05,57,18.90
2015,07,19,05,58,18.90
2015,07,19,05,59,18.90
2015,07,19,06,00,18.90
2015,07,19,06,01,18.90
2015,07,19,06,02,18.90
2015,07,19,06,03,19.00
2015,07,19,06,04,19.00
2015,07,19,06,05,19.10
2015,07,19,06,06,19.10
2015,07,19,06,07,19.20
2015,07,19,06,08,19.30
2015,07,19,06,09,19.30
2015,07,19,06,10,19.40
2015,07,19,06,11,19.40
2015,07,19,06,12,19.50
2015,07,19,06,13,19.50
2015,07,19,06,14,19.60
2015,07,19,06,15,19.60
2015,07,19,06,16,19.60
2015,07,19,06,17,19.60
2015,07,19,06,18,19.60
2015,07,19,06,19,19.50
2015,07,19,06,20,19.50
2015,07,19,06,21,19.50
2015,07,19,06,22,19.40
2015,07,19,06,23,19.40
2015,07,19,06,24,19.30
2015,07,19,06,25,19.30
2015,07,19,06,26,19.30
2015,07,19,06,27,19.30
2015,07,19,06,28,19.30
2015,07,19,06,29,19.20
2015,07,19,06,30,19.20
2015,07,19,06,31,19.20
2015,07,19,06,32,19.30
2015,07,19,06,33,19.30
2015,07,19,06,34,19.30
2015,07,19,06,35,19.40
2015,07,19,06,36,19.40
2015,07,19,06,37,19.50
2015,07,19,06,38,19.60
2015,07,19,06,39,19.70
2015,07,19,06,40,19.80
2015,07,19,06,41,19.90
2015,07,19,06,42,19.90
2015,07,19,06,43,20.00
2015,07,19,06,44,20.10
2015,07,19,06,45,20.20
2015,07,19,06,46,20.20
2015,07,19,06,47,20.30
2015,07,19,06,48,20.40
2015,07,19,06,49,20.40
2015,07,19,06,50,20.50
2015,07,19,06,51,20.50
2015,07,19,06,52,20.60
2015,07,19,06,53,20.60
2015,07,19,06,54,20.70
2015,07,19,06,55,20.70
2015,07,19,06,56,20.80
2015,07,19,06,57,20.80
2015,07,19,06,58,20.80
2015,07,19,06,59,20.90
2015,07,19,07,00,20.90
2015,07,19,07,01,20.90
2015,07,19,07,02,21.00
2015,07,19,07,03,21.00
2015,07,19,07,04,21.10
2015,07,19,07,05,21.10
2015,07,19,07,06,21.20
2015,07,19,07,07,21.30
2015,07,19,07,08,21.30
2015,07,19,07,09,21.50
2015,07,19,07,10,21.60
2015,07,19,07,11,21.70
2015,07,19,07,12,21.80
2015,07,19,07,13,21.90
2015,07,19,07,14,22.00
2015,07,19,07,15,22.10
2015,07,19,07,16,22.20
2015,07,19,07,17,22.30
2015,07,19,07,18,22.30
2015,07,19,07,19,22.30
2015,07,19,07,20,22.40
2015,07,19,07,21,22.40
2015,07,19,07,22,22.50
2015,07,19,07,23,22.50
2015,07,19,07,24,22.60
2015,07,19,07,25,22.60
2015,07,19,07,26,22.60
2015,07,19,07,27,22.70
2015,07,19,07,28,22.70
2015,07,19,07,29,22.80
2015,07,19,07,30,22.80
2015,07,19,07,31,22.80
2015,07,19,07,32,22.80
2015,07,19,07,33,22.80
2015,07,19,07,34,22.80
2015,07,19,07,35,22.80
2015,07,19,07,36,22.70
2015,07,19,07,37,22.70
2015,07,19,07,38,22.60
2015,07,19,07,39,22.60
2015,07,19,07,40,22.50
2015,07,19,07,41,22.50
2015,07,19,07,42,22.50
2015,07,19,07,43,22.50
2015,07,19,07,44,22.50
2015,07,19,07,45,22.50
2015,07,19,07,46,22.50
2015,07,19,07,47,22.50
2015,07,19,07,48,22.60
2015,07,19,07,49,22.60
2015,07,19,07,50,22.70
2015,07,19,07,51,22.80
2015,07,19,07,52,22.80
2015,07,19,07,53,22.90
2015,07,19,07,54,23.00
2015,07,19,07,55,23.10
2015,07,19,07,56,23.10
2015,07,19,07,57,23.20
2015,07,19,07,58,23.30
2015,07,19,07,59,23.30
2015,07,19,08,00,23.40
2015,07,19,08,01,23.40
2015,07,19,08,02,23.40
2015,07,19,08,03,23.40
2015,07,19,08,04,23.50
2015,07,19,08,05,23.50
2015,07,19,08,06,23.50
2015,07,19,08,07,23.50
2015,07,19,08,08,23.50
2015,07,19,08,09,23.50
2015,07,19,08,10,23.50
2015,07,19,08,11,23.60
2015,07,19,08,12,23.60
2015,07,19,08,13,23.60
2015,07,19,08,14,23.70
2015,07,19,08,15,23.70
2015,07,19,08,16,23.80
2015,07,19,08,17,23.90
2015,07,19,08,18,23.90
2015,07,19,08,19,23.90
2015,07,19,08,20,24.00
2015,07,19,08,21,24.00
2015,07,19,08,22,24.10
2015,07,19,08,23,24.20
2015,07,19,08,24,24.30
2015,07,19,08,25,24.30
2015,07,19,08,26,24.40
2015,07,19,08,27,24.50
2015,07,19,08,28,24.50
2015,07,19,08,29,24.50
2015,07,19,08,30,24.60
2015,07,19,08,31,24.60
2015,07,19,08,32,24.60
2015,07,19,08,33,24.70
2015,07,19,08,34,24.80
2015,07,19,08,35,24.80
2015,07,19,08,36,24.90
2015,07,19,08,37,24.90
2015,07,19,08,38,24.90
2015,07,19,08,39,24.90
2015,07,19,08,40,24.90
2015,07,19,08,41,24.90
2015,07,19,08,42,24.90
2015,07,19,08,43,24.90
2015,07,19,08,44,24.90
2015,07,19,08,45,24.90
2015,07,19,08,46,24.90
2015,07,19,08,47,24.90
2015,07,19,08,48,24.90
2015,07,19,08,49,24.90
2015,07,19,08,50,25.00
2015,07,19,08,51,25.10
2015,07,19,08,52,25.20
2015,07,19,08,53,25.20
2015,07,19,08,54,25.30
2015,07,19,08,55,25.40
2015,07,19,08,56,25.40
2015,07,19,08,57,25.50
2015,07,19,08,58,25.60
2015,07,19,08,59,25.60
2015,07,19,09,00,25.70
2015,07,19,09,01,25.70
2015,07,19,09,02,25.70
2015,07,19,09,03,25.70
2015,07,19,09,04,25.70
2015,07,19,09,05,25.80
2015,07,19,09,06,25.90
2015,07,19,09,07,25.90
2015,07,19,09,08,25.90
2015,07,19,09,09,25.90
2015,07,19,09,10,25.90
2015,07,19,09,11,25.90
2015,07,19,09,12,25.90
2015,07,19,09,13,26.00
2015,07,19,09,14,26.00
2015,07,19,09,15,26.10
2015,07,19,09,16,26.10
2015,07,19,09,17,26.20
2015,07,19,09,18,26.20
2015,07,19,09,19,26.20
2015,07,19,09,20,26.10
2015,07,19,09,21,26.10
2015,07,19,09,22,26.20
2015,07,19,09,23,26.30
2015,07,19,09,24,26.30
2015,07,19,09,25,26.40
2015,07,19,09,26,26.40
2015,07,19,09,27,26.50
2015,07,19,09,28,26.50
2015,07,19,09,29,26.60
2015,07,19,09,30,26.60
2015,07,19,09,31,26.70
2015,07,19,09,32,26.80
2015,07,19,09,33,26.90
2015,07,19,09,34,26.90
2015,07,19,09,35,26.90
2015,07,19,09,36,26.90
2015,07,19,09,37,26.70
2015,07,19,09,38,26.50
2015,07,19,09,39,26.30
2015,07,19,09,40,26.20
2015,07,19,09,41,26.10
2015,07,19,09,42,26.00
2015,07,19,09,43,25.90
2015,07,19,09,44,25.90
2015,07,19,09,45,25.90
2015,07,19,09,46,25.90
2015,07,19,09,47,26.00
2015,07,19,09,48,26.00
2015,07,19,09,49,26.00
2015,07,19,09,50,26.00
2015,07,19,09,51,26.00
2015,07,19,09,52,25.90
2015,07,19,09,53,25.90
2015,07,19,09,54,25.90
2015,07,19,09,55,26.00
2015,07,19,09,56,26.10
2015,07,19,09,57,26.30
2015,07,19,09,58,26.40
2015,07,19,09,59,26.50
2015,07,19,10,00,26.60
2015,07,19,10,01,26.60
2015,07,19,10,02,26.70
2015,07,19,10,03,26.80
2015,07,19,10,04,26.90
2015,07,19,10,05,26.90
2015,07,19,10,06,27.00
2015,07,19,10,07,27.10
2015,07,19,10,08,27.20
2015,07,19,10,09,27.20
2015,07,19,10,10,27.30
2015,07,19,10,11,27.30
2015,07,19,10,12,27.30
2015,07,19,10,13,27.30
2015,07,19,10,14,27.30
2015,07,19,10,15,27.30
2015,07,19,10,16,27.30
2015,07,19,10,17,27.30
2015,07,19,10,18,27.30
2015,07,19,10,19,27.40
2015,07,19,10,20,27.50
2015,07,19,10,21,27.60
2015,07,19,10,22,27.70
2015,07,19,10,23,27.80
2015,07,19,10,24,27.80
2015,07,19,10,25,27.80
2015,07,19,10,26,27.80
2015,07,19,10,27,27.70
2015,07,19,10,28,27.60
2015,07,19,10,29,27.60
2015,07,19,10,30,27.60
2015,07,19,10,31,27.50
2015,07,19,10,32,27.40
2015,07,19,10,33,27.40
2015,07,19,10,34,27.40
2015,07,19,10,35,27.30
2015,07,19,10,36,27.30
2015,07,19,10,37,27.20
2015,07,19,10,38,27.10
2015,07,19,10,39,27.00
2015,07,19,10,40,26.90
2015,07,19,10,41,27.00
2015,07,19,10,42,27.10
2015,07,19,10,43,27.20
2015,07,19,10,44,27.20
2015,07,19,10,45,27.30
2015,07,19,10,46,27.30
2015,07,19,10,47,27.30
2015,07,19,10,48,27.30
2015,07,19,10,49,27.50
2015,07,19,10,50,27.60
2015,07,19,10,51,27.60
2015,07,19,10,52,27.60
2015,07,19,10,53,27.60
2015,07,19,10,54,27.50
2015,07,19,10,55,27.40
2015,07,19,10,56,27.40
2015,07,19,10,57,27.50
2015,07,19,10,58,27.50
2015,07,19,10,59,27.50
2015,07,19,11,00,27.40
2015,07,19,11,01,27.40
2015,07,19,11,02,27.30
2015,07,19,11,03,27.10
2015,07,19,11,04,27.00
2015,07,19,11,05,26.90
2015,07,19,11,06,27.00
2015,07,19,11,07,27.10
2015,07,19,11,08,27.10
2015,07,19,11,09,27.00
2015,07,19,11,10,26.90
2015,07,19,11,11,26.90
2015,07,19,11,12,26.90
2015,07,19,11,13,26.80
2015,07,19,11,14,26.70
2015,07,19,11,15,26.60
2015,07,19,11,16,26.50
2015,07,19,11,17,26.50
2015,07,19,11,18,26.50
2015,07,19,11,19,26.60
2015,07,19,11,20,26.50
2015,07,19,11,21,26.50
2015,07,19,11,22,26.60
2015,07,19,11,23,26.50
2015,07,19,11,24,26.40
2015,07,19,11,25,26.30
2015,07,19,11,26,26.30
2015,07,19,11,27,26.30
2015,07,19,11,28,26.40
2015,07,19,11,29,26.30
2015,07,19,11,30,26.30
2015,07,19,11,31,26.30
2015,07,19,11,32,26.30
2015,07,19,11,33,26.40
2015,07,19,11,34,26.40
2015,07,19,11,35,26.50
2015,07,19,11,36,26.70
2015,07,19,11,37,26.90
2015,07,19,11,38,27.00
2015,07,19,11,39,27.10
2015,07,19,11,40,27.00
2015,07,19,11,41,26.80
2015,07,19,11,42,26.60
2015,07,19,11,43,26.50
2015,07,19,11,44,26.30
2015,07,19,11,45,26.20
2015,07,19,11,46,26.00
2015,07,19,11,47,25.80
2015,07,19,11,48,25.70
2015,07,19,11,49,25.80
2015,07,19,11,50,25.80
2015,07,19,11,51,25.80
2015,07,19,11,52,25.80
2015,07,19,11,53,25.80
2015,07,19,11,54,25.90
2015,07,19,11,55,26.00
2015,07,19,11,56,26.10
2015,07,19,11,57,26.20
2015,07,19,11,58,26.20
2015,07,19,11,59,26.10
2015,07,19,12,00,26.10
2015,07,19,12,01,26.00
2015,07,19,12,02,25.90
2015,07,19,12,03,25.80
2015,07,19,12,04,25.80
2015,07,19,12,05,25.90
2015,07,19,12,06,25.90
2015,07,19,12,07,25.90
2015,07,19,12,08,25.90
2015,07,19,12,09,25.90
2015,07,19,12,10,25.90
2015,07,19,12,11,25.90
2015,07,19,12,12,26.00
2015,07,19,12,13,26.10
2015,07,19,12,14,26.20
2015,07,19,12,15,26.20
2015,07,19,12,16,26.10
2015,07,19,12,17,26.10
2015,07,19,12,18,26.20
2015,07,19,12,19,26.30
2015,07,19,12,20,26.40
2015,07,19,12,21,26.30
2015,07,19,12,22,26.30
2015,07,19,12,23,26.20
2015,07,19,12,24,26.20
2015,07,19,12,25,26.20
2015,07,19,12,26,26.40
2015,07,19,12,27,26.60
2015,07,19,12,28,26.70
2015,07,19,12,29,26.60
2015,07,19,12,30,26.60
2015,07,19,12,31,26.60
2015,07,19,12,32,26.70
2015,07,19,12,33,26.80
2015,07,19,12,34,26.90
2015,07,19,12,35,27.00
2015,07,19,12,36,27.00
2015,07,19,12,37,26.80
2015,07,19,12,38,26.70
2015,07,19,12,39,26.80
2015,07,19,12,40,26.80
2015,07,19,12,41,26.80
2015,07,19,12,42,26.80
2015,07,19,12,43,26.80
2015,07,19,12,44,26.90
2015,07,19,12,45,27.00
2015,07,19,12,46,27.00
2015,07,19,12,47,27.00
2015,07,19,12,48,26.90
2015,07,19,12,49,26.80
2015,07,19,12,50,26.80
2015,07,19,12,51,26.70
2015,07,19,12,52,26.70
2015,07,19,12,53,26.70
2015,07,19,12,54,26.70
2015,07,19,12,55,26.70
2015,07,19,12,56,26.70
2015,07,19,12,57,26.70
2015,07,19,12,58,26.80
2015,07,19,12,59,26.80
2015,07,19,13,00,26.90
2015,07,19,13,01,26.90
2015,07,19,13,02,27.00
2015,07,19,13,03,27.10
2015,07,19,13,04,27.10
2015,07,19,13,05,27.00
2015,07,19,13,06,26.80
2015,07,19,13,07,26.70
2015,07,19,13,08,26.60
2015,07,19,13,09,26.50
2015,07,19,13,10,26.50
2015,07,19,13,11,26.50
2015,07,19,13,12,26.50
2015,07,19,13,13,26.70
2015,07,19,13,14,26.90
2015,07,19,13,15,26.90
2015,07,19,13,16,26.90
2015,07,19,13,17,26.90
2015,07,19,13,18,26.90
2015,07,19,13,19,26.90
2015,07,19,13,20,26.90
2015,07,19,13,21,26.90
2015,07,19,13,22,26.80
2015,07,19,13,23,26.80
2015,07,19,13,24,26.80
2015,07,19,13,25,26.80
2015,07,19,13,26,26.90
2015,07,19,13,27,26.90
2015,07,19,13,28,27.00
2015,07,19,13,29,27.10
2015,07,19,13,30,27.20
2015,07,19,13,31,27.30
2015,07,19,13,32,27.30
2015,07,19,13,33,27.30
2015,07,19,13,34,27.20
2015,07,19,13,35,27.20
2015,07,19,13,36,27.20
2015,07,19,13,37,27.30
2015,07,19,13,38,27.40
2015,07,19,13,39,27.50
2015,07,19,13,40,27.50
2015,07,19,13,41,27.40
2015,07,19,13,42,27.40
2015,07,19,13,43,27.50
2015,07,19,13,44,27.50
2015,07,19,13,45,27.50
2015,07,19,13,46,27.50
2015,07,19,13,47,27.60
2015,07,19,13,48,27.60
2015,07,19,13,49,27.60
2015,07,19,13,50,27.60
2015,07,19,13,51,27.60
2015,07,19,13,52,27.60
2015,07,19,13,53,27.60
2015,07,19,13,54,27.50
2015,07,19,13,55,27.40
2015,07,19,13,56,27.40
2015,07,19,13,57,27.50
2015,07,19,13,58,27.50
2015,07,19,13,59,27.60
2015,07,19,14,00,27.70
2015,07,19,14,01,27.70
2015,07,19,14,02,27.60
2015,07,19,14,03,27.60
2015,07,19,14,04,27.60
2015,07,19,14,05,27.70
2015,07,19,14,06,27.80
2015,07,19,14,07,27.90
2015,07,19,14,08,27.90
2015,07,19,14,09,27.90
2015,07,19,14,10,27.90
2015,07,19,14,11,27.90
2015,07,19,14,12,28.00
2015,07,19,14,13,28.10
2015,07,19,14,14,28.10
2015,07,19,14,15,28.10
2015,07,19,14,16,28.10
2015,07,19,14,17,28.10
2015,07,19,14,18,28.10
2015,07,19,14,19,28.00
2015,07,19,14,20,28.00
2015,07,19,14,21,27.90
2015,07,19,14,22,27.90
2015,07,19,14,23,28.00
2015,07,19,14,24,28.20
2015,07,19,14,25,28.30
2015,07,19,14,26,28.40
2015,07,19,14,27,28.50
2015,07,19,14,28,28.60
2015,07,19,14,29,28.50
2015,07,19,14,30,28.40
2015,07,19,14,31,28.30
2015,07,19,14,32,28.10
2015,07,19,14,33,28.00
2015,07,19,14,34,28.00
2015,07,19,14,35,28.00
2015,07,19,14,36,28.00
2015,07,19,14,37,28.00
2015,07,19,14,38,28.10
2015,07,19,14,39,28.10
2015,07,19,14,40,28.20
2015,07,19,14,41,28.20
2015,07,19,14,42,28.30
2015,07,19,14,43,28.50
2015,07,19,14,44,28.60
2015,07,19,14,45,28.70
2015,07,19,14,46,28.80
2015,07,19,14,47,28.90
2015,07,19,14,48,28.90
2015,07,19,14,49,29.00
2015,07,19,14,50,29.00
2015,07,19,14,51,29.00
2015,07,19,14,52,28.90
2015,07,19,14,53,28.80
2015,07,19,14,54,28.80
2015,07,19,14,55,28.80
2015,07,19,14,56,28.90
2015,07,19,14,57,28.90
2015,07,19,14,58,28.90
2015,07,19,14,59,28.90
2015,07,19,15,00,28.90
2015,07,19,15,01,28.80
2015,07,19,15,02,28.80
2015,07,19,15,03,28.80
2015,07,19,15,04,28.90
2015,07,19,15,05,28.90
2015,07,19,15,06,29.00
2015,07,19,15,07,29.00
2015,07,19,15,08,29.00
2015,07,19,15,09,29.00
2015,07,19,15,10,29.10
2015,07,19,15,11,29.10
2015,07,19,15,12,29.10
2015,07,19,15,13,29.10
2015,07,19,15,14,29.20
2015,07,19,15,15,29.20
2015,07,19,15,16,29.20
2015,07,19,15,17,29.20
2015,07,19,15,18,29.20
2015,07,19,15,19,29.20
2015,07,19,15,20,29.20
2015,07,19,15,21,29.30
2015,07,19,15,22,29.40
2015,07,19,15,23,29.40
2015,07,19,15,24,29.30
2015,07,19,15,25,29.30
2015,07,19,15,26,29.30
2015,07,19,15,27,29.40
2015,07,19,15,28,29.40
2015,07,19,15,29,29.40
2015,07,19,15,30,29.40
2015,07,19,15,31,29.30
2015,07,19,15,32,29.30
2015,07,19,15,33,29.40
2015,07,19,15,34,29.40
2015,07,19,15,35,29.40
2015,07,19,15,36,29.40
2015,07,19,15,37,29.40
2015,07,19,15,38,29.40
2015,07,19,15,39,29.40
2015,07,19,15,40,29.30
2015,07,19,15,41,29.30
2015,07,19,15,42,29.30
2015,07,19,15,43,29.20
2015,07,19,15,44,29.20
2015,07,19,15,45,29.10
2015,07,19,15,46,29.10
2015,07,19,15,47,29.10
2015,07,19,15,48,29.10
2015,07,19,15,49,29.10
2015,07,19,15,50,29.30
2015,07,19,15,51,29.30
2015,07,19,15,52,29.30
2015,07,19,15,53,29.40
2015,07,19,15,54,29.50
2015,07,19,15,55,29.50
2015,07,19,15,56,29.40
2015,07,19,15,57,29.40
2015,07,19,15,58,29.40
2015,07,19,15,59,29.30
2015,07,19,16,00,29.20
2015,07,19,16,01,29.20
2015,07,19,16,02,29.30
2015,07,19,16,03,29.30
2015,07,19,16,04,29.40
2015,07,19,16,05,29.50
2015,07,19,16,06,29.60
2015,07,19,16,07,29.40
2015,07,19,16,08,29.30
2015,07,19,16,09,29.30
2015,07,19,16,10,29.30
2015,07,19,16,11,29.20
2015,07,19,16,12,29.20
2015,07,19,16,13,29.20
2015,07,19,16,14,29.20
2015,07,19,16,15,29.30
2015,07,19,16,16,29.40
2015,07,19,16,17,29.40
2015,07,19,16,18,29.40
2015,07,19,16,19,29.40
2015,07,19,16,20,29.40
2015,07,19,16,21,29.50
2015,07,19,16,22,29.60
2015,07,19,16,23,29.60
2015,07,19,16,24,29.70
2015,07,19,16,25,29.70
2015,07,19,16,26,29.60
2015,07,19,16,27,29.50
2015,07,19,16,28,29.50
2015,07,19,16,29,29.40
2015,07,19,16,30,29.40
2015,07,19,16,31,29.30
2015,07,19,16,32,29.30
2015,07,19,16,33,29.20
2015,07,19,16,34,29.30
2015,07,19,16,35,29.40
2015,07,19,16,36,29.50
2015,07,19,16,37,29.60
2015,07,19,16,38,29.60
2015,07,19,16,39,29.40
2015,07,19,16,40,29.40
2015,07,19,16,41,29.40
2015,07,19,16,42,29.40
2015,07,19,16,43,29.30
2015,07,19,16,44,29.30
2015,07,19,16,45,29.30
2015,07,19,16,46,29.30
2015,07,19,16,47,29.30
2015,07,19,16,48,29.30
2015,07,19,16,49,29.30
2015,07,19,16,50,29.30
2015,07,19,16,51,29.30
2015,07,19,16,52,29.30
2015,07,19,16,53,29.40
2015,07,19,16,54,29.60
2015,07,19,16,55,29.70
2015,07,19,16,56,29.80
2015,07,19,16,57,29.90
2015,07,19,16,58,29.90
2015,07,19,16,59,30.00
2015,07,19,17,00,30.10
2015,07,19,17,01,30.10
2015,07,19,17,02,30.10
2015,07,19,17,03,30.10
2015,07,19,17,04,30.00
2015,07,19,17,05,29.90
2015,07,19,17,06,29.80
2015,07,19,17,07,29.70
2015,07,19,17,08,29.50
2015,07,19,17,09,29.40
2015,07,19,17,10,29.40
2015,07,19,17,11,29.40
2015,07,19,17,12,29.40
2015,07,19,17,13,29.40
2015,07,19,17,14,29.40
2015,07,19,17,15,29.40
2015,07,19,17,16,29.40
2015,07,19,17,17,29.50
2015,07,19,17,18,29.50
2015,07,19,17,19,29.50